User: anonymous   Login
Location: Vancouver
(49.2500°N, 123.1330°W)
Time: 12:42:53
(UTC-07:00)
Language:

Cosmos 676 Rocket - Orbit

View from above orbital plane
View from above orbital plane
View from above satellite
View from above satellite

Ground track
Ground track

The orbit data is extracted from the following two-line orbital elements,

1 07434U 74071B   14297.76517565  .00000315  00000-0  11642-3 0  3475
2 07434 074.0481 188.4817 0021424 334.9783 079.6970 14.36307339 97947
Epoch (UTC): 24 October 2014 18:21:51
Eccentricity: 0.0021424
inclination: 74.0481°
perigee height: 755 km
apogee height: 786 km
right ascension of ascending node: 188.4817°
argument of perigee: 334.9783°
revolutions per day: 14.36307339
mean anomaly at epoch: 79.6970°
orbit number at epoch: 9794

The dashed part of the orbit path shows where the satellite is in the earth's shadow,  

DLR